,,Stat5,,Stat1,,Stat2,,Stat3,,Stat4,,Wind1,,Wind1,
time,status,PA1M_AVG,status,PR1M_SUM,status,RH1M_AVG,status,SR1M_AVG,status,TA1M_AVG,status,W1dAve1m,status,W1sAve1m,
2000-05-09, 00:00:00,VALID,918.177,VALID,0,VALID,99.1012,VALID,-0.0169808,VALID,19.5655,VALID,91,VALID,0,
2000-05-09, 00:01:00,VALID,918.161,VALID,0,VALID,99.0911,VALID,-0.0679233,VALID,19.569,VALID,89,VALID,0,
2000-05-09, 00:02:00,VALID,918.158,VALID,0,VALID,99.0249,VALID,-0.0509425,VALID,19.53,VALID,100,VALID,0,
2000-05-09, 00:03:00,VALID,918.127,VALID,0,VALID,99.0109,VALID,-0.0509425,VALID,19.5208,VALID,95,VALID,0.428843,
2000-05-09, 00:04:00,VALID,918.114,VALID,0,VALID,99.0249,VALID,-0.0339617,VALID,19.5208,VALID,98,VALID,0.477865,
2000-05-09, 00:05:00,VALID,918.092,VALID,0,VALID,99.0491,VALID,-0.0679233,VALID,19.5273,VALID,94,VALID,0.476357,
2000-05-09, 00:06:00,VALID,918.082,VALID,0,VALID,99.0237,VALID,-0.0679233,VALID,19.5109,VALID,92,VALID,0.615498,
2000-05-09, 00:07:00,VALID,918.043,VALID,0,VALID,99.0466,VALID,-0.0339617,VALID,19.5074,VALID,93,VALID,0.321205,
2000-05-09, 00:08:00,VALID,918.02,VALID,0,VALID,99.0923,VALID,-0.101885,VALID,19.5275,VALID,93,VALID,0.231497,
2000-05-09, 00:09:00,VALID,917.991,VALID,0,VALID,99.1025,VALID,-0.101885,VALID,19.5402,VALID,93,VALID,0.270693,
2000-05-09, 00:10:00,VALID,917.95,VALID,0,VALID,99.0949,VALID,-0.101885,VALID,19.5369,VALID,93,VALID,0.344984,
2000-05-09, 00:11:00,VALID,917.916,VALID,0,VALID,99.0911,VALID,-0.101885,VALID,19.5307,VALID,119,VALID,0.410895,
2000-05-09, 00:12:00,VALID,917.895,VALID,0,VALID,99.0364,VALID,-0.0849042,VALID,19.5114,VALID,118,VALID,0.421429,
2000-05-09, 00:13:00,VALID,917.882,VALID,0,VALID,99.0237,VALID,-0.101885,VALID,19.489,VALID,118,VALID,0.23778,
2000-05-09, 00:14:00,VALID,917.893,VALID,0,VALID,99.0491,VALID,-0.0849042,VALID,19.4922,VALID,118,VALID,0.0284091,
2000-05-09, 00:15:00,VALID,917.894,VALID,0,VALID,99.0364,VALID,-0.0679233,VALID,19.4915,VALID,123,VALID,0.128906,
2000-05-09, 00:16:00,VALID,917.892,VALID,0,VALID,99.0148,VALID,-0.0849042,VALID,19.4858,VALID,133,VALID,0.335093,
2000-05-09, 00:17:00,VALID,917.895,VALID,0,VALID,99.0402,VALID,-0.0849042,VALID,19.4825,VALID,136,VALID,0.49641,
2000-05-09, 00:18:00,VALID,917.878,VALID,0,VALID,99.0504,VALID,-0.101885,VALID,19.4828,VALID,137,VALID,0.572002,
2000-05-09, 00:19:00,VALID,917.858,VALID,0,VALID,99.0491,VALID,-0.101885,VALID,19.4728,VALID,138,VALID,0.635851,
2000-05-09, 00:20:00,VALID,917.838,VALID,0,VALID,99.0453,VALID,-0.0849042,VALID,19.4723,VALID,135,VALID,0.675681,
2000-05-09, 00:21:00,VALID,917.823,VALID,0,VALID,99.0466,VALID,-0.101885,VALID,19.4626,VALID,134,VALID,0.524704,
2000-05-09, 00:22:00,VALID,917.805,VALID,0,VALID,99.0148,VALID,-0.101885,VALID,19.4602,VALID,134,VALID,0.127455,
2000-05-09, 00:23:00,VALID,917.794,VALID,0,VALID,99.0173,VALID,0,VALID,19.4525,VALID,147,VALID,0,
2000-05-09, 00:24:00,VALID,917.78,VALID,0,VALID,98.9766,VALID,0,VALID,19.4358,VALID,178,VALID,0,
2000-05-09, 00:25:00,VALID,917.776,VALID,0,VALID,98.9982,VALID,0,VALID,19.4224,VALID,185,VALID,0,
2000-05-09, 00:26:00,VALID,917.759,VALID,0,VALID,98.9792,VALID,0.0339617,VALID,19.4167,VALID,179,VALID,0,
2000-05-09, 00:27:00,VALID,917.748,VALID,0,VALID,99.016,VALID,0,VALID,19.4,VALID,169,VALID,0,
2000-05-09, 00:28:00,VALID,917.735,VALID,0,VALID,99.0593,VALID,0,VALID,19.4,VALID,166,VALID,0,
2000-05-09, 00:29:00,VALID,917.725,VALID,0,VALID,99.0338,VALID,0,VALID,19.4003,VALID,166,VALID,0,
2000-05-09, 00:30:00,VALID,917.717,VALID,0,VALID,99.0173,VALID,0,VALID,19.3807,VALID,157,VALID,0,
2000-05-09, 00:31:00,VALID,917.704,VALID,0,VALID,99.0745,VALID,0.0169808,VALID,19.4068,VALID,117,VALID,0,
2000-05-09, 00:32:00,VALID,917.689,VALID,0,VALID,99.0656,VALID,0,VALID,19.4097,VALID,84,VALID,0.630912,
2000-05-09, 00:33:00,VALID,917.696,VALID,0,VALID,99.0733,VALID,0,VALID,19.4097,VALID,86,VALID,0.342272,
2000-05-09, 00:34:00,VALID,917.688,VALID,0,VALID,99.0809,VALID,0,VALID,19.4294,VALID,84,VALID,0.106771,
2000-05-09, 00:35:00,VALID,917.692,VALID,0,VALID,99.0682,VALID,0,VALID,19.4328,VALID,64,VALID,0,
2000-05-09, 00:36:00,VALID,917.679,VALID,0,VALID,99.0224,VALID,0.0509425,VALID,19.4,VALID,49,VALID,0.310811,
2000-05-09, 00:37:00,VALID,917.67,VALID,0,VALID,98.9855,VALID,0.0339617,VALID,19.413,VALID,47,VALID,0.238839,
2000-05-09, 00:38:00,VALID,917.653,VALID,0,VALID,98.9639,VALID,0,VALID,19.4189,VALID,43,VALID,0.0228207,
2000-05-09, 00:39:00,VALID,917.624,VALID,0,VALID,98.9588,VALID,0.0169808,VALID,19.4458,VALID,43,VALID,0,
2000-05-09, 00:40:00,VALID,917.587,VALID,0,VALID,98.9346,VALID,0.0169808,VALID,19.4485,VALID,35,VALID,0.0170641,
2000-05-09, 00:41:00,VALID,917.558,VALID,0,VALID,98.9219,VALID,0,VALID,19.4455,VALID,283,VALID,0.0202703,
2000-05-09, 00:42:00,VALID,917.534,VALID,0,VALID,98.9003,VALID,0.0169808,VALID,19.4425,VALID,290,VALID,0,
2000-05-09, 00:43:00,VALID,917.514,VALID,0,VALID,98.8774,VALID,0.0169808,VALID,19.4192,VALID,314,VALID,0.588341,
2000-05-09, 00:44:00,VALID,917.51,VALID,0,VALID,98.8634,VALID,0,VALID,19.3968,VALID,297,VALID,0.533854,
2000-05-09, 00:45:00,VALID,917.48,VALID,0,VALID,98.8736,VALID,0,VALID,19.3908,VALID,275,VALID,0.309972,
2000-05-09, 00:46:00,VALID,917.474,VALID,0,VALID,98.8609,VALID,0,VALID,19.3618,VALID,262,VALID,0.355574,
2000-05-09, 00:47:00,VALID,917.47,VALID,0,VALID,98.8533,VALID,0,VALID,19.3322,VALID,273,VALID,0.26647,
2000-05-09, 00:48:00,VALID,917.454,VALID,0,VALID,98.8177,VALID,0.0169808,VALID,19.3133,VALID,258,VALID,0.503167,
2000-05-09, 00:49:00,VALID,917.454,VALID,0,VALID,98.7732,VALID,0,VALID,19.2549,VALID,266,VALID,0.346571,
2000-05-09, 00:50:00,VALID,917.451,VALID,0,VALID,98.7592,VALID,0,VALID,19.2164,VALID,261,VALID,0.0220353,
2000-05-09, 00:51:00,VALID,917.436,VALID,0,VALID,98.7312,VALID,0,VALID,19.1906,VALID,260,VALID,0,
2000-05-09, 00:52:00,VALID,917.431,VALID,0,VALID,98.7134,VALID,0,VALID,19.1583,VALID,260,VALID,0,
2000-05-09, 00:53:00,VALID,917.421,VALID,0,VALID,98.6117,VALID,0.0169808,VALID,19.1168,VALID,260,VALID,0,
2000-05-09, 00:54:00,VALID,917.423,VALID,0,VALID,98.4781,VALID,0,VALID,19.0355,VALID,260,VALID,0,
2000-05-09, 00:55:00,VALID,917.412,VALID,0,VALID,98.3917,VALID,0,VALID,18.9841,VALID,260,VALID,0,
2000-05-09, 00:56:00,VALID,917.417,VALID,0,VALID,98.3052,VALID,0,VALID,18.9488,VALID,260,VALID,0,
2000-05-09, 00:57:00,VALID,917.408,VALID,0,VALID,98.3395,VALID,0,VALID,18.913,VALID,260,VALID,0,
2000-05-09, 00:58:00,VALID,917.428,VALID,0,VALID,98.4247,VALID,0,VALID,18.923,VALID,260,VALID,0,
2000-05-09, 00:59:00,VALID,917.422,VALID,0,VALID,98.426,VALID,0,VALID,18.9068,VALID,260,VALID,0,
2000-05-09, 01:00:00,VALID,917.412,VALID,0,VALID,98.3535,VALID,0,VALID,18.8715,VALID,233,VALID,0,
2000-05-09, 01:01:00,VALID,917.402,VALID,0,VALID,98.2607,VALID,0,VALID,18.8067,VALID,199,VALID,0,
2000-05-09, 01:02:00,VALID,917.395,VALID,0,VALID,98.2467,VALID,0,VALID,18.7679,VALID,192,VALID,0,
2000-05-09, 01:03:00,VALID,917.369,VALID,0,VALID,97.9364,VALID,0,VALID,18.6616,VALID,192,VALID,0,
2000-05-09, 01:04:00,VALID,917.362,VALID,0,VALID,97.4761,VALID,-0.0169808,VALID,18.5516,VALID,192,VALID,0,
2000-05-09, 01:05:00,VALID,917.344,VALID,0,VALID,97.3248,VALID,0,VALID,18.4872,VALID,192,VALID,0,
2000-05-09, 01:06:00,VALID,917.32,VALID,0,VALID,97.3706,VALID,-0.0169808,VALID,18.4584,VALID,192,VALID,0,
2000-05-09, 01:07:00,VALID,917.313,VALID,0,VALID,97.4927,VALID,0.0169808,VALID,18.4194,VALID,192,VALID,0,
2000-05-09, 01:08:00,VALID,917.298,VALID,0,VALID,97.5155,VALID,0.101885,VALID,18.3698,VALID,192,VALID,0,
2000-05-09, 01:09:00,VALID,917.287,VALID,0,VALID,97.4761,VALID,0.101885,VALID,18.3216,VALID,192,VALID,0,
2000-05-09, 01:10:00,VALID,917.292,VALID,0,VALID,97.4723,VALID,0.0679233,VALID,18.2835,VALID,191,VALID,0,
2000-05-09, 01:11:00,VALID,917.306,VALID,0,VALID,97.3019,VALID,0.0849042,VALID,18.2086,VALID,188,VALID,0,
2000-05-09, 01:12:00,VALID,917.315,VALID,0,VALID,97.0578,VALID,0.0679233,VALID,18.1375,VALID,186,VALID,0,
2000-05-09, 01:13:00,VALID,917.336,VALID,0,VALID,97.1353,VALID,0.0849042,VALID,18.0958,VALID,185,VALID,0,
2000-05-09, 01:14:00,VALID,917.372,VALID,0,VALID,97.2599,VALID,0.0679233,VALID,18.0568,VALID,185,VALID,0,
2000-05-09, 01:15:00,VALID,917.379,VALID,0,VALID,97.3439,VALID,0.0849042,VALID,18.0019,VALID,185,VALID,0,
2000-05-09, 01:16:00,VALID,917.382,VALID,0,VALID,97.5155,VALID,0.101885,VALID,17.9726,VALID,177,VALID,0,
2000-05-09, 01:17:00,VALID,917.369,VALID,0,VALID,97.4634,VALID,0.0849042,VALID,17.9307,VALID,161,VALID,0,
2000-05-09, 01:18:00,VALID,917.355,VALID,0,VALID,97.2409,VALID,0.0679233,VALID,17.8695,VALID,160,VALID,0,
2000-05-09, 01:19:00,VALID,917.324,VALID,0,VALID,97.5728,VALID,0.0679233,VALID,17.8794,VALID,160,VALID,0,
2000-05-09, 01:20:00,VALID,917.299,VALID,0,VALID,97.8945,VALID,0.0849042,VALID,17.9057,VALID,181,VALID,0.0592949,
2000-05-09, 01:21:00,VALID,917.265,VALID,0,VALID,98.2327,VALID,0.0679233,VALID,17.9376,VALID,204,VALID,0.493032,
2000-05-09, 01:22:00,VALID,917.242,VALID,0,VALID,98.3713,VALID,-0.0169808,VALID,17.9615,VALID,236,VALID,0.508482,
2000-05-09, 01:23:00,VALID,917.22,VALID,0,VALID,98.6142,VALID,-0.0339617,VALID,18.0104,VALID,238,VALID,0.626645,
2000-05-09, 01:24:00,VALID,917.205,VALID,0,VALID,98.8749,VALID,0,VALID,18.075,VALID,225,VALID,0.566512,
2000-05-09, 01:25:00,VALID,917.195,VALID,0,VALID,98.9575,VALID,-0.0169808,VALID,18.1165,VALID,225,VALID,0.135691,
2000-05-09, 01:26:00,VALID,917.177,VALID,0,VALID,98.8609,VALID,-0.0169808,VALID,18.117,VALID,225,VALID,0,
2000-05-09, 01:27:00,VALID,917.153,VALID,0,VALID,98.1335,VALID,-0.0339617,VALID,17.8683,VALID,175,VALID,0.318973,
2000-05-09, 01:28:00,VALID,917.145,VALID,0,VALID,97.8767,VALID,0,VALID,17.694,VALID,148,VALID,0.503005,
2000-05-09, 01:29:00,VALID,917.127,VALID,0,VALID,98.1793,VALID,-0.0339617,VALID,17.6714,VALID,148,VALID,0.564394,
2000-05-09, 01:30:00,VALID,917.109,VALID,0,VALID,98.6295,VALID,-0.0169808,VALID,17.7103,VALID,175,VALID,0.592371,
2000-05-09, 01:31:00,VALID,917.097,VALID,0,VALID,98.9283,VALID,0,VALID,17.7685,VALID,191,VALID,0.556377,
2000-05-09, 01:32:00,VALID,917.093,VALID,0,VALID,99.2449,VALID,-0.0679233,VALID,17.8782,VALID,186,VALID,0.701225,
2000-05-09, 01:33:00,VALID,917.078,VALID,0,VALID,99.4585,VALID,-0.0339617,VALID,18.0434,VALID,182,VALID,0.663007,
2000-05-09, 01:34:00,VALID,917.08,VALID,0,VALID,99.3556,VALID,-0.0169808,VALID,18.0658,VALID,177,VALID,0.46072,
2000-05-09, 01:35:00,VALID,917.1,VALID,0,VALID,99.2767,VALID,0,VALID,18.0526,VALID,174,VALID,0.502003,
2000-05-09, 01:36:00,VALID,917.1,VALID,0,VALID,99.3301,VALID,-0.0679233,VALID,18.03,VALID,167,VALID,0.740287,
2000-05-09, 01:37:00,VALID,917.091,VALID,0,VALID,99.4102,VALID,-0.0169808,VALID,18.0785,VALID,169,VALID,0.765179,
2000-05-09, 01:38:00,VALID,917.092,VALID,0,VALID,99.4992,VALID,-0.0509425,VALID,18.1435,VALID,173,VALID,0.789474,
2000-05-09, 01:39:00,VALID,917.068,VALID,0,VALID,99.5323,VALID,-0.0509425,VALID,18.2109,VALID,183,VALID,0.746622,
2000-05-09, 01:40:00,VALID,917.058,VALID,0,VALID,99.5641,VALID,-0.0339617,VALID,18.2496,VALID,193,VALID,0.757607,
2000-05-09, 01:41:00,VALID,917.05,VALID,0,VALID,99.5577,VALID,-0.0169808,VALID,18.2983,VALID,202,VALID,0.706081,
2000-05-09, 01:42:00,VALID,917.034,VALID,0,VALID,99.5488,VALID,-0.0509425,VALID,18.3274,VALID,196,VALID,0.771205,
2000-05-09, 01:43:00,VALID,917.026,VALID,0,VALID,99.5488,VALID,-0.0509425,VALID,18.35,VALID,199,VALID,0.642027,
2000-05-09, 01:44:00,VALID,916.998,VALID,0,VALID,99.5577,VALID,-0.0169808,VALID,18.3726,VALID,202,VALID,0.982008,
2000-05-09, 01:45:00,VALID,916.972,VALID,0,VALID,99.5692,VALID,0.0169808,VALID,18.4016,VALID,181,VALID,1.09467,
2000-05-09, 01:46:00,VALID,916.941,VALID,0,VALID,99.5717,VALID,-0.0169808,VALID,18.4272,VALID,181,VALID,0.929899,
2000-05-09, 01:47:00,VALID,916.914,VALID,0,VALID,99.5425,VALID,-0.0339617,VALID,18.4344,VALID,202,VALID,0.879012,
2000-05-09, 01:48:00,VALID,916.894,VALID,0,VALID,99.573,VALID,-0.0509425,VALID,18.4169,VALID,182,VALID,0.824747,
2000-05-09, 01:49:00,VALID,916.879,VALID,0,VALID,99.5717,VALID,-0.0169808,VALID,18.4595,VALID,181,VALID,0.821546,
2000-05-09, 01:50:00,VALID,916.889,VALID,0,VALID,99.5844,VALID,-0.0169808,VALID,18.4692,VALID,192,VALID,0.578325,
2000-05-09, 01:51:00,VALID,916.882,VALID,0,VALID,99.5883,VALID,-0.0339617,VALID,18.4757,VALID,198,VALID,0.660051,
2000-05-09, 01:52:00,VALID,916.884,VALID,0,VALID,99.5946,VALID,-0.0169808,VALID,18.5015,VALID,211,VALID,0.346429,
2000-05-09, 01:53:00,VALID,916.873,VALID,0,VALID,99.5946,VALID,0,VALID,18.5144,VALID,192,VALID,0.654605,
2000-05-09, 01:54:00,VALID,916.871,VALID,0,VALID,99.5781,VALID,-0.0339617,VALID,18.5142,VALID,178,VALID,0.775338,
2000-05-09, 01:55:00,VALID,916.839,VALID,0,VALID,99.5844,VALID,0,VALID,18.4877,VALID,153,VALID,0.784745,
2000-05-09, 01:56:00,VALID,916.81,VALID,0,VALID,99.5628,VALID,-0.0169808,VALID,18.4948,VALID,175,VALID,0.795819,
2000-05-09, 01:57:00,VALID,916.806,VALID,0,VALID,99.5743,VALID,-0.0169808,VALID,18.4916,VALID,190,VALID,0.497768,
2000-05-09, 01:58:00,VALID,916.786,VALID,0,VALID,99.5501,VALID,0,VALID,18.4655,VALID,194,VALID,0.326522,
2000-05-09, 01:59:00,VALID,916.765,VALID,0,VALID,99.5717,VALID,-0.0339617,VALID,18.4466,VALID,173,VALID,0.241714,
2000-05-09, 02:00:00,VALID,916.751,VALID,0,VALID,99.6099,VALID,-0.0339617,VALID,18.4558,VALID,161,VALID,0.686121,
2000-05-09, 02:01:00,VALID,916.743,VALID,0,VALID,99.6188,VALID,-0.0169808,VALID,18.4757,VALID,173,VALID,0.79223,
2000-05-09, 02:02:00,VALID,916.726,VALID,0,VALID,99.6404,VALID,-0.0169808,VALID,18.4983,VALID,178,VALID,0.62859,
2000-05-09, 02:03:00,VALID,916.718,VALID,0,VALID,99.6315,VALID,-0.0339617,VALID,18.4976,VALID,177,VALID,0.574958,
2000-05-09, 02:04:00,VALID,916.696,VALID,0,VALID,99.6264,VALID,-0.0169808,VALID,18.5018,VALID,187,VALID,1.15061,
2000-05-09, 02:05:00,VALID,916.669,VALID,0,VALID,99.6556,VALID,0,VALID,18.5271,VALID,171,VALID,1.17308,
2000-05-09, 02:06:00,VALID,916.65,VALID,0,VALID,99.6188,VALID,0,VALID,18.511,VALID,160,VALID,1.01119,
2000-05-09, 02:07:00,VALID,916.645,VALID,0,VALID,99.6404,VALID,-0.0169808,VALID,18.4916,VALID,190,VALID,0.900223,
2000-05-09, 02:08:00,VALID,916.649,VALID,0,VALID,99.6773,VALID,0,VALID,18.5274,VALID,176,VALID,0.83491,
2000-05-09, 02:09:00,VALID,916.659,VALID,0,VALID,99.7014,VALID,-0.0169808,VALID,18.5629,VALID,197,VALID,1.03463,
2000-05-09, 02:10:00,VALID,916.678,VALID,0,VALID,99.7065,VALID,-0.0509425,VALID,18.585,VALID,181,VALID,0.71361,
2000-05-09, 02:11:00,VALID,916.705,VALID,0,VALID,99.7129,VALID,-0.0169808,VALID,18.5908,VALID,130,VALID,0.162162,
2000-05-09, 02:12:00,VALID,916.726,VALID,0,VALID,99.723,VALID,-0.0169808,VALID,18.6339,VALID,125,VALID,0.857143,
2000-05-09, 02:13:00,VALID,916.746,VALID,0,VALID,99.7256,VALID,-0.0339617,VALID,18.6494,VALID,102,VALID,0.221354,
2000-05-09, 02:14:00,VALID,916.78,VALID,0,VALID,99.7256,VALID,-0.0339617,VALID,18.6824,VALID,113,VALID,0.458097,
2000-05-09, 02:15:00,VALID,916.792,VALID,0,VALID,99.6976,VALID,-0.0339617,VALID,18.6462,VALID,136,VALID,0.486213,
2000-05-09, 02:16:00,VALID,916.806,VALID,0,VALID,99.6938,VALID,-0.0339617,VALID,18.6432,VALID,136,VALID,0.0282939,
2000-05-09, 02:17:00,VALID,916.793,VALID,0,VALID,99.7027,VALID,0,VALID,18.6466,VALID,137,VALID,0,
2000-05-09, 02:18:00,VALID,916.8,VALID,0,VALID,99.7154,VALID,-0.0169808,VALID,18.6494,VALID,141,VALID,0.0612331,
2000-05-09, 02:19:00,VALID,916.788,VALID,0,VALID,99.7091,VALID,-0.0169808,VALID,18.6658,VALID,159,VALID,0.0219184,
2000-05-09, 02:20:00,VALID,916.797,VALID,0,VALID,99.6925,VALID,0,VALID,18.6593,VALID,165,VALID,0.480369,
2000-05-09, 02:21:00,VALID,916.808,VALID,0,VALID,99.6773,VALID,-0.0169808,VALID,18.624,VALID,157,VALID,0.687922,
2000-05-09, 02:22:00,VALID,916.799,VALID,0,VALID,99.7014,VALID,0,VALID,18.624,VALID,147,VALID,0.690848,
2000-05-09, 02:23:00,VALID,916.796,VALID,0,VALID,99.6976,VALID,0,VALID,18.6136,VALID,153,VALID,0.678454,
2000-05-09, 02:24:00,VALID,916.807,VALID,0,VALID,99.7027,VALID,-0.0339617,VALID,18.6173,VALID,128,VALID,0.896115,
2000-05-09, 02:25:00,VALID,916.802,VALID,0,VALID,99.7078,VALID,-0.0509425,VALID,18.6268,VALID,127,VALID,0.433388,
2000-05-09, 02:26:00,VALID,916.802,VALID,0,VALID,99.7052,VALID,-0.0339617,VALID,18.624,VALID,139,VALID,0.570101,
2000-05-09, 02:27:00,VALID,916.815,VALID,0,VALID,99.6785,VALID,-0.0509425,VALID,18.6016,VALID,157,VALID,0.576786,
2000-05-09, 02:28:00,VALID,916.822,VALID,0,VALID,99.6938,VALID,-0.0509425,VALID,18.592,VALID,134,VALID,0.312901,
2000-05-09, 02:29:00,VALID,916.826,VALID,0,VALID,99.7218,VALID,-0.0169808,VALID,18.6009,VALID,131,VALID,0.0241477,
2000-05-09, 02:30:00,VALID,916.837,VALID,0,VALID,99.7307,VALID,-0.0509425,VALID,18.6208,VALID,128,VALID,0.000229779,
2000-05-09, 02:31:00,VALID,916.85,VALID,0,VALID,99.7472,VALID,-0.0169808,VALID,18.6399,VALID,110,VALID,0.320946,
2000-05-09, 02:32:00,VALID,916.86,VALID,0,VALID,99.7256,VALID,-0.0679233,VALID,18.6429,VALID,116,VALID,0.0502534,
2000-05-09, 02:33:00,VALID,916.879,VALID,0,VALID,99.723,VALID,-0.0339617,VALID,18.6208,VALID,119,VALID,0,
2000-05-09, 02:34:00,VALID,916.888,VALID,0,VALID,99.7141,VALID,-0.0169808,VALID,18.6007,VALID,123,VALID,0,
2000-05-09, 02:35:00,VALID,916.884,VALID,0,VALID,99.7358,VALID,-0.0679233,VALID,18.6243,VALID,123,VALID,0.0320513,
2000-05-09, 02:36:00,VALID,916.886,VALID,0,VALID,99.7472,VALID,-0.0509425,VALID,18.6499,VALID,117,VALID,0.528505,
2000-05-09, 02:37:00,VALID,916.876,VALID,0,VALID,99.7243,VALID,-0.0509425,VALID,18.6335,VALID,98,VALID,0.535491,
2000-05-09, 02:38:00,VALID,916.848,VALID,0,VALID,99.7269,VALID,-0.0169808,VALID,18.6116,VALID,102,VALID,0.472862,
2000-05-09, 02:39:00,VALID,916.827,VALID,0,VALID,99.7116,VALID,-0.0339617,VALID,18.5952,VALID,107,VALID,0.664696,
2000-05-09, 02:40:00,VALID,916.825,VALID,0,VALID,99.7065,VALID,-0.0509425,VALID,18.556,VALID,114,VALID,0.110403,
2000-05-09, 02:41:00,VALID,916.813,VALID,0,VALID,99.7192,VALID,-0.0339617,VALID,18.5693,VALID,112,VALID,0,
2000-05-09, 02:42:00,VALID,916.808,VALID,0,VALID,99.7396,VALID,-0.0169808,VALID,18.5679,VALID,89,VALID,0,
2000-05-09, 02:43:00,VALID,916.797,VALID,0,VALID,99.718,VALID,-0.0679233,VALID,18.5587,VALID,90,VALID,0,
2000-05-09, 02:44:00,VALID,916.778,VALID,0,VALID,99.6925,VALID,-0.0339617,VALID,18.5267,VALID,90,VALID,0,
2000-05-09, 02:45:00,VALID,916.768,VALID,0,VALID,99.7065,VALID,-0.0509425,VALID,18.5073,VALID,110,VALID,0,
2000-05-09, 02:46:00,VALID,916.766,VALID,0,VALID,99.7218,VALID,-0.0339617,VALID,18.5237,VALID,110,VALID,0,
2000-05-09, 02:47:00,VALID,916.769,VALID,0,VALID,99.7472,VALID,-0.0509425,VALID,18.5398,VALID,110,VALID,0,
2000-05-09, 02:48:00,VALID,916.783,VALID,0,VALID,99.7408,VALID,-0.0509425,VALID,18.5299,VALID,110,VALID,0,
2000-05-09, 02:49:00,VALID,916.798,VALID,0,VALID,99.7332,VALID,-0.0509425,VALID,18.5041,VALID,110,VALID,0,
2000-05-09, 02:50:00,VALID,916.799,VALID,0,VALID,99.7281,VALID,-0.0169808,VALID,18.5038,VALID,128,VALID,0,
2000-05-09, 02:51:00,VALID,916.79,VALID,0,VALID,99.6836,VALID,-0.0339617,VALID,18.4715,VALID,158,VALID,0,
2000-05-09, 02:52:00,VALID,916.78,VALID,0,VALID,99.6976,VALID,-0.0169808,VALID,18.4462,VALID,218,VALID,0,
2000-05-09, 02:53:00,VALID,916.778,VALID,0,VALID,99.7294,VALID,0.0169808,VALID,18.4448,VALID,235,VALID,0.229852,
2000-05-09, 02:54:00,VALID,916.762,VALID,0,VALID,99.7256,VALID,0.0509425,VALID,18.4381,VALID,233,VALID,0.467483,
2000-05-09, 02:55:00,VALID,916.783,VALID,0,VALID,99.7408,VALID,0.0169808,VALID,18.4422,VALID,240,VALID,0.428454,
2000-05-09, 02:56:00,VALID,916.793,VALID,0,VALID,99.7434,VALID,0.0339617,VALID,18.442,VALID,245,VALID,0.247044,
2000-05-09, 02:57:00,VALID,916.819,VALID,0,VALID,99.751,VALID,0.0679233,VALID,18.4385,VALID,243,VALID,0.0107143,
2000-05-09, 02:58:00,VALID,916.835,VALID,0,VALID,99.7612,VALID,0.0339617,VALID,18.445,VALID,268,VALID,0.00240385,
2000-05-09, 02:59:00,VALID,916.843,VALID,0,VALID,99.7688,VALID,0.0339617,VALID,18.4515,VALID,303,VALID,0.526989,
2000-05-09, 03:00:00,VALID,916.866,VALID,0,VALID,99.7523,VALID,0.0169808,VALID,18.4286,VALID,301,VALID,0.534697,
2000-05-09, 03:01:00,VALID,916.867,VALID,0,VALID,99.7637,VALID,0.0169808,VALID,18.4355,VALID,291,VALID,0.569257,
2000-05-09, 03:02:00,VALID,916.879,VALID,0,VALID,99.7637,VALID,0.0509425,VALID,18.4353,VALID,274,VALID,0.446579,
2000-05-09, 03:03:00,VALID,916.88,VALID,0,VALID,99.7777,VALID,0.0509425,VALID,18.4222,VALID,252,VALID,0.26837,
2000-05-09, 03:04:00,VALID,916.89,VALID,0,VALID,99.7739,VALID,0.0339617,VALID,18.4286,VALID,255,VALID,0.047526,
2000-05-09, 03:05:00,VALID,916.888,VALID,0,VALID,99.7841,VALID,0.0169808,VALID,18.4321,VALID,262,VALID,0.161258,
2000-05-09, 03:06:00,VALID,916.888,VALID,0,VALID,99.7752,VALID,0.0849042,VALID,18.4258,VALID,258,VALID,0.413007,
2000-05-09, 03:07:00,VALID,916.885,VALID,0,VALID,99.7688,VALID,0.0339617,VALID,18.3968,VALID,259,VALID,0.214732,
2000-05-09, 03:08:00,VALID,916.886,VALID,0,VALID,99.7739,VALID,0.0509425,VALID,18.3869,VALID,240,VALID,0.0246711,
2000-05-09, 03:09:00,VALID,916.886,VALID,0,VALID,99.7866,VALID,0.0509425,VALID,18.3901,VALID,269,VALID,0,
2000-05-09, 03:10:00,VALID,916.894,VALID,0,VALID,99.7879,VALID,0.0509425,VALID,18.3832,VALID,206,VALID,0,
2000-05-09, 03:11:00,VALID,916.902,VALID,0,VALID,99.8019,VALID,0.0169808,VALID,18.4065,VALID,192,VALID,0,
2000-05-09, 03:12:00,VALID,916.928,VALID,0,VALID,99.8019,VALID,0.0509425,VALID,18.409,VALID,191,VALID,0,
2000-05-09, 03:13:00,VALID,916.95,VALID,0,VALID,99.793,VALID,0.0509425,VALID,18.4157,VALID,191,VALID,0,
2000-05-09, 03:14:00,VALID,916.976,VALID,0,VALID,99.8184,VALID,0.0169808,VALID,18.4353,VALID,152,VALID,0.0262784,
2000-05-09, 03:15:00,VALID,917.001,VALID,0,VALID,99.8222,VALID,0.0679233,VALID,18.4574,VALID,139,VALID,0.195313,
2000-05-09, 03:16:00,VALID,917.012,VALID,0,VALID,99.7828,VALID,0.0509425,VALID,18.4316,VALID,147,VALID,0.0502534,
2000-05-09, 03:17:00,VALID,917.012,VALID,0,VALID,99.7714,VALID,0.0679233,VALID,18.3901,VALID,139,VALID,0.330025,
2000-05-09, 03:18:00,VALID,917.026,VALID,0,VALID,99.7408,VALID,0.0169808,VALID,18.3578,VALID,163,VALID,0.705659,
2000-05-09, 03:19:00,VALID,917.026,VALID,0,VALID,99.7205,VALID,0.0509425,VALID,18.319,VALID,214,VALID,0.557726,
2000-05-09, 03:20:00,VALID,917.036,VALID,0,VALID,99.7154,VALID,0.0169808,VALID,18.2964,VALID,199,VALID,0.230769,
2000-05-09, 03:21:00,VALID,917.047,VALID,0,VALID,99.7281,VALID,0.0679233,VALID,18.2678,VALID,174,VALID,0.530828,
2000-05-09, 03:22:00,VALID,917.065,VALID,0,VALID,99.7472,VALID,0.0169808,VALID,18.2381,VALID,178,VALID,0.359152,
2000-05-09, 03:23:00,VALID,917.075,VALID,0,VALID,99.737,VALID,-0.0339617,VALID,18.2272,VALID,218,VALID,0.63898,
2000-05-09, 03:24:00,VALID,917.106,VALID,0,VALID,99.737,VALID,-0.0849042,VALID,18.2042,VALID,219,VALID,0.611486,
2000-05-09, 03:25:00,VALID,917.131,VALID,0,VALID,99.7472,VALID,-0.0339617,VALID,18.1716,VALID,222,VALID,0.386513,
2000-05-09, 03:26:00,VALID,917.142,VALID,0,VALID,99.7663,VALID,-0.0339617,VALID,18.1557,VALID,213,VALID,0.0726351,
2000-05-09, 03:27:00,VALID,917.135,VALID,0,VALID,99.7854,VALID,-0.0509425,VALID,18.1624,VALID,214,VALID,0,
2000-05-09, 03:28:00,VALID,917.156,VALID,0,VALID,99.7904,VALID,-0.0509425,VALID,18.149,VALID,233,VALID,0,
2000-05-09, 03:29:00,VALID,917.144,VALID,0,VALID,99.7993,VALID,-0.0339617,VALID,18.1689,VALID,264,VALID,0,
2000-05-09, 03:30:00,VALID,917.145,VALID,0,VALID,99.8235,VALID,-0.0849042,VALID,18.1749,VALID,265,VALID,0,
2000-05-09, 03:31:00,VALID,917.123,VALID,0,VALID,99.8413,VALID,-0.0339617,VALID,18.188,VALID,270,VALID,0,
2000-05-09, 03:32:00,VALID,917.128,VALID,0,VALID,99.821,VALID,-0.0339617,VALID,18.1714,VALID,280,VALID,0,
2000-05-09, 03:33:00,VALID,917.118,VALID,0,VALID,99.8032,VALID,-0.0339617,VALID,18.1654,VALID,226,VALID,0,
2000-05-09, 03:34:00,VALID,917.114,VALID,0,VALID,99.8006,VALID,0,VALID,18.1525,VALID,248,VALID,0.632378,
2000-05-09, 03:35:00,VALID,917.098,VALID,0,VALID,99.7943,VALID,-0.0339617,VALID,18.1269,VALID,229,VALID,0.879607,